[[{"header":{"parameterUnit":"m.s-1","parameterCategory":1,"la1":30.2991,"la2":30.254,"lo1":-89.0895,"lo2":-89.0444,"dy":0.0017,"dx":0.0017,"nx":28,"ny":28,"refTime":"2025-01-28T03:00:00:Z","depth":0,"parameterNumber":2,"parameterNumberName":"U-component_of_WINDS"},"data":[0,0,0,0,0,0,0,0,0,0,0,0,0,0,0,0,0,0,0,0,0,0,0,0,0,0,0,0,0,0,0,0,0,0,0,0,0,0,0,0,0,0,0,0,0,0,0,0,0,0,0,0,0,0,0,0,0,0,-0.0419,-0.0418,0,-0.0379,-0.0379,-0.0378,-0.0358,-0.0358,-0.0358,-0.0358,-0.0317,-0.0316,-0.0315,0,0,0,0,0,0,0,0,0,0,0,0,0,-0.0476,-0.0475,-0.0419,-0.0418,-0.0418,-0.0379,-0.0379,-0.0378,-0.0358,-0.0358,-0.0358,-0.0358,-0.0317,-0.0316,-0.0315,0,0,0,0,0,0,0,0,0,0,0,0,0,-0.0445,-0.0475,-0.0419,-0.0403,-0.0401,-0.0379,-0.0379,-0.0378,-0.0358,-0.0358,-0.0358,-0.0358,-0.0318,-0.0316,-0.0315,-0.0306,0,0,-0.031,-0.0309,0,0,0,0,0,0,0,0,-0.0447,-0.0443,-0.0406,-0.0404,-0.0402,-0.0373,-0.0384,-0.0354,-0.0358,-0.0374,-0.0358,-0.0358,-0.0336,-0.0333,-0.0325,-0.0304,-0.0302,-0.031,-0.0309,-0.0308,-0.0308,0,0,0,0,0,0,0,-0.0449,-0.0445,-0.0403,-0.0405,-0.0403,-0.0397,-0.0393,-0.0378,-0.0356,-0.0373,-0.0371,-0.0367,-0.0335,-0.0327,-0.0324,-0.0302,-0.031,-0.0308,-0.0307,-0.0307,-0.0269,-0.0269,0,0,0,0,0,0,-0.0454,-0.0447,-0.0404,-0.0402,-0.0425,-0.0396,-0.0392,-0.0383,-0.0356,-0.0352,-0.0367,-0.0366,-0.033,-0.0326,-0.0323,-0.031,-0.0308,-0.0307,-0.0306,-0.0269,-0.0269,-0.0269,0,0,0,0,0,0,-0.0455,-0.045,-0.0406,-0.0424,-0.0418,-0.0396,-0.0386,-0.0382,-0.0374,-0.0351,-0.0347,-0.0363,-0.033,-0.0325,-0.031,-0.0308,-0.0306,-0.0305,-0.027,-0.0269,-0.0269,-0.0285,0,0,0,0,0,0,-0.0457,-0.0451,-0.0448,-0.0424,-0.0417,-0.0394,-0.0385,-0.0381,-0.0371,-0.037,-0.0347,-0.0343,-0.0329,-0.0312,-0.0308,-0.0306,-0.0303,-0.027,-0.0269,-0.0269,-0.0284,-0.0285,-0.0286,0,0,0,0,0,-0.0459,-0.0454,-0.0447,-0.0442,-0.0412,-0.0394,-0.039,-0.0374,-0.0371,-0.0367,-0.0353,-0.0344,-0.0309,-0.0311,-0.0306,-0.0304,-0.027,-0.0269,-0.0269,-0.0284,-0.0285,-0.0286,0,0,0,0,0,0,-0.0478,-0.045,-0.0443,-0.043,-0.0414,-0.0391,-0.0385,-0.0376,-0.0361,-0.036,-0.0342,-0.0336,-0.0323,-0.0312,-0.0314,-0.0293,-0.0288,-0.0287,-0.0301,-0.0302,-0.0303,-0.0306,-0.0302,0,0,0,0,0,-0.0481,-0.0468,-0.0445,-0.0435,-0.0428,-0.0408,-0.0399,-0.0389,-0.0372,-0.0365,-0.0349,-0.0333,-0.0319,-0.0309,-0.0295,-0.0282,-0.0277,-0.0278,-0.0279,-0.0279,-0.0279,-0.0271,-0.0271,-0.0269,-0.0269,-0.0269,0,0,-0.0486,-0.0469,-0.0463,-0.0439,-0.0425,-0.0413,-0.0403,-0.039,-0.038,-0.0363,-0.0348,-0.0336,-0.0316,-0.0302,-0.0295,-0.0292,-0.0278,-0.0279,-0.028,-0.0279,-0.027,-0.0271,-0.0271,-0.0269,-0.0269,-0.0269,0,0,-0.0489,-0.0476,-0.0466,-0.0453,-0.0432,-0.0419,-0.0417,-0.0394,-0.0385,-0.0369,-0.0356,-0.0344,-0.0319,-0.0306,-0.0296,-0.0293,-0.0284,-0.0288,-0.0293,-0.0285,-0.0285,-0.0285,-0.0284,-0.0284,-0.0288,-0.0288,-0.0288,0,-0.0499,-0.0479,-0.0462,-0.045,-0.0439,-0.0423,-0.0413,-0.0401,-0.0377,-0.037,-0.0367,-0.0335,-0.0321,-0.0303,-0.0302,-0.0295,-0.0291,-0.0291,-0.0287,-0.0287,-0.0286,-0.0285,-0.0284,-0.0289,-0.0289,-0.0288,-0.0288,0,-0.0491,-0.0478,-0.0472,-0.045,-0.0438,-0.0427,-0.0408,-0.0399,-0.0389,-0.0375,-0.0359,-0.0341,-0.0322,-0.0317,-0.0307,-0.0298,-0.0296,-0.029,-0.0285,-0.0287,-0.0286,-0.0285,-0.029,-0.0289,-0.0289,-0.0289,0,0,-0.0506,-0.0473,-0.0472,-0.0461,-0.0437,-0.0426,-0.0414,-0.0395,-0.0387,-0.0371,-0.036,-0.0339,-0.0332,-0.0321,-0.0309,-0.0302,-0.03,-0.0297,-0.0296,-0.0298,-0.0288,-0.0293,-0.0292,-0.0294,-0.0294,-0.0293,-0.0289,0,-0.0506,-0.0484,-0.0467,-0.0451,-0.0438,-0.0422,-0.0411,-0.0395,-0.0382,-0.0369,-0.0354,-0.0339,-0.0333,-0.0325,-0.0318,-0.0302,-0.0298,-0.0302,-0.0283,-0.0283,-0.0289,-0.0291,-0.0297,-0.0294,-0.0289,-0.0288,-0.0288,0,-0.0503,-0.0487,-0.047,-0.0446,-0.044,-0.0431,-0.0412,-0.0399,-0.038,-0.0371,-0.0358,-0.0346,-0.0331,-0.0327,-0.0307,-0.031,-0.0301,-0.0292,-0.0292,-0.029,-0.0286,-0.0289,-0.0292,-0.0292,-0.0287,-0.0287,-0.0287,0,-0.0516,-0.049,-0.0476,-0.0467,-0.0439,-0.0433,-0.0421,-0.0402,-0.0391,-0.0375,-0.0367,-0.0349,-0.0339,-0.0325,-0.0308,-0.0307,-0.0289,-0.0284,-0.0281,-0.0282,-0.0279,-0.0279,-0.0281,-0.0273,-0.0273,-0.0273,-0.0273,0,-0.0517,-0.0507,-0.0481,-0.0472,-0.046,-0.0441,-0.0429,-0.0416,-0.0399,-0.0387,-0.0371,-0.036,-0.0338,-0.0324,-0.0311,-0.0296,-0.0291,-0.0283,-0.028,-0.0285,-0.0286,-0.0279,-0.0279,-0.0273,-0.0273,-0.0273,-0.0273,0,-0.053,-0.0512,-0.0495,-0.047,-0.0463,-0.0455,-0.0434,-0.0424,-0.041,-0.0395,-0.039,-0.0368,-0.0351,-0.0332,-0.0309,-0.0299,-0.0285,-0.028,-0.0291,-0.0289,-0.0287,-0.0288,-0.0285,-0.0283,-0.0276,-0.0276,-0.0277,0,-0.0532,-0.0524,-0.0498,-0.0488,-0.0477,-0.0462,-0.0451,-0.0432,-0.0421,-0.0398,-0.0392,-0.0373,-0.0357,-0.033,-0.0312,-0.0293,-0.0288,-0.0288,-0.0285,-0.029,-0.0288,-0.0289,-0.0287,-0.0289,-0.0289,-0.0289,-0.029,0,-0.0538,-0.0529,-0.0514,-0.0496,-0.0483,-0.0468,-0.0451,-0.0445,-0.0422,-0.041,-0.0392,-0.038,-0.0356,-0.0338,-0.0317,-0.0304,-0.0293,-0.029,-0.0289,-0.0294,-0.0301,-0.0297,-0.0294,-0.0291,-0.0291,-0.0291,-0.029,-0.029,-0.0545,-0.0537,-0.0517,-0.05,-0.0486,-0.0471,-0.0461,-0.0445,-0.043,-0.0409,-0.0398,-0.038,-0.036,-0.0331,-0.0318,-0.0303,-0.03,-0.0298,-0.0297,-0.0297,-0.0298,-0.0303,-0.03,-0.0299,-0.0299,-0.0299,-0.0299,0,-0.0551,-0.0537,-0.0522,-0.0499,-0.0486,-0.0476,-0.0458,-0.0447,-0.0432,-0.0414,-0.0399,-0.0378,-0.0359,-0.0339,-0.0319,-0.0311,-0.0306,-0.0307,-0.0307,-0.0304,-0.0302,-0.0306,-0.0312,-0.0312,-0.0312,-0.0312,-0.0312,-0.0312,-0.0552,-0.0537,-0.0526,-0.0503,-0.0489,-0.0471,-0.0461,-0.0447,-0.0433,-0.041,-0.0395,-0.0382,-0.0362,-0.0341,-0.0324,-0.0318,-0.0311,-0.0314,-0.0307,-0.0306,-0.0305,-0.0304,-0.0307,-0.0313,-0.0313,-0.031,-0.031,-0.031]},{"header":{"parameterUnit":"m.s-1","parameterCategory":1,"la1":30.2991,"la2":30.254,"lo1":-89.0895,"lo2":-89.0444,"dy":0.0017,"dx":0.0017,"nx":28,"ny":28,"refTime":"2025-01-28T03:00:00:Z","depth":0,"parameterNumber":3,"parameterNumberName":"V-component_of_WINDS"},"data":[0,0,0,0,0,0,0,0,0,0,0,0,0,0,0,0,0,0,0,0,0,0,0,0,0,0,0,0,0,0,0,0,0,0,0,0,0,0,0,0,0,0,0,0,0,0,0,0,0,0,0,0,0,0,0,0,0,0,-4.1264,-4.1265,0,-4.1358,-4.1359,-4.136,-4.1365,-4.1364,-4.1363,-4.1362,-4.1454,-4.1457,-4.1461,0,0,0,0,0,0,0,0,0,0,0,0,0,-4.1088,-4.1092,-4.1264,-4.1265,-4.1267,-4.1358,-4.1359,-4.136,-4.1365,-4.1364,-4.1363,-4.1361,-4.1453,-4.1457,-4.1461,0,0,0,0,0,0,0,0,0,0,0,0,0,-4.1172,-4.1093,-4.1264,-4.128,-4.1283,-4.1358,-4.1359,-4.1361,-4.1366,-4.1364,-4.1362,-4.1361,-4.1451,-4.1456,-4.1461,-4.1525,0,0,-4.1477,-4.1479,0,0,0,0,0,0,0,0,-4.1167,-4.1178,-4.1277,-4.1279,-4.1282,-4.1348,-4.1331,-4.1416,-4.1366,-4.1334,-4.1362,-4.136,-4.142,-4.1427,-4.1448,-4.153,-4.1534,-4.1478,-4.1481,-4.1483,-4.1484,0,0,0,0,0,0,0,-4.1161,-4.1174,-4.1301,-4.1278,-4.1281,-4.1282,-4.1292,-4.1347,-4.1384,-4.1337,-4.1337,-4.1348,-4.1421,-4.1443,-4.1451,-4.1535,-4.1478,-4.1482,-4.1485,-4.1487,-4.1678,-4.1679,0,0,0,0,0,0,-4.1153,-4.1169,-4.1298,-4.1304,-4.1219,-4.1287,-4.1298,-4.1329,-4.1384,-4.1391,-4.135,-4.1348,-4.1435,-4.1444,-4.1454,-4.1535,-4.1483,-4.1488,-4.1491,-4.1676,-4.1678,-4.168,0,0,0,0,0,0,-4.1149,-4.1164,-4.1294,-4.1237,-4.1254,-4.1292,-4.1326,-4.1331,-4.1354,-4.1394,-4.14,-4.1366,-4.1434,-4.1446,-4.1509,-4.1538,-4.149,-4.1495,-4.1673,-4.1676,-4.1679,-4.1697,0,0,0,0,0,0,-4.1144,-4.1163,-4.1187,-4.1238,-4.1257,-4.1348,-4.1328,-4.1334,-4.1363,-4.1362,-4.1411,-4.1417,-4.1434,-4.1501,-4.1514,-4.1545,-4.1499,-4.1671,-4.1675,-4.1678,-4.1694,-4.17,-4.1705,0,0,0,0,0,-4.1137,-4.1187,-4.1189,-4.1204,-4.1289,-4.135,-4.1361,-4.138,-4.1365,-4.1391,-4.1417,-4.1416,-4.1533,-4.1507,-4.1522,-4.1555,-4.1669,-4.1674,-4.1678,-4.1691,-4.1699,-4.1705,0,0,0,0,0,0,-4.1137,-4.1194,-4.1196,-4.1263,-4.1302,-4.1351,-4.1383,-4.1387,-4.143,-4.1427,-4.1448,-4.1459,-4.1521,-4.1544,-4.1514,-4.1621,-4.1599,-4.1607,-4.1605,-4.1612,-4.1618,-4.1611,-4.1503,0,0,0,0,0,-4.1145,-4.1191,-4.1238,-4.1293,-4.1312,-4.1345,-4.1372,-4.1384,-4.1424,-4.144,-4.1471,-4.1509,-4.1555,-4.1585,-4.1628,-4.1697,-4.1709,-4.1727,-4.1733,-4.1737,-4.1744,-4.1785,-4.1794,-4.1695,-4.1695,-4.1695,0,0,-4.1161,-4.1198,-4.1225,-4.1294,-4.1325,-4.1372,-4.1358,-4.1408,-4.1443,-4.1447,-4.1509,-4.1533,-4.1577,-4.1644,-4.1675,-4.1665,-4.1774,-4.1743,-4.1746,-4.175,-4.179,-4.18,-4.1808,-4.1698,-4.1697,-4.1697,0,0,-4.1216,-4.1248,-4.1299,-4.1332,-4.1381,-4.1402,-4.1415,-4.1464,-4.1481,-4.1544,-4.1549,-4.1591,-4.1668,-4.1701,-4.1727,-4.1799,-4.18,-4.1812,-4.1843,-4.1883,-4.1891,-4.1898,-4.1926,-4.1935,-4.1818,-4.1818,-4.1819,0,-4.123,-4.1303,-4.1324,-4.1376,-4.1406,-4.1415,-4.1467,-4.1497,-4.1557,-4.1578,-4.1566,-4.1667,-4.1697,-4.1773,-4.1791,-4.1811,-4.1827,-4.1807,-4.1888,-4.1895,-4.1902,-4.1929,-4.1939,-4.182,-4.182,-4.182,-4.1819,0,-4.1319,-4.1369,-4.1404,-4.1465,-4.15,-4.1551,-4.1581,-4.1613,-4.1623,-4.1646,-4.1711,-4.1748,-4.1802,-4.182,-4.1829,-4.1899,-4.1892,-4.1883,-4.1862,-4.1913,-4.1939,-4.1949,-4.1822,-4.1821,-4.1821,-4.1821,0,0,-4.1374,-4.1449,-4.1462,-4.1492,-4.1548,-4.1587,-4.1639,-4.1694,-4.1722,-4.1764,-4.1809,-4.1877,-4.1871,-4.1901,-4.1914,-4.1949,-4.2007,-4.1937,-4.1938,-4.1951,-4.2089,-4.2096,-4.2107,-4.2007,-4.2009,-4.2011,-4.2086,0,-4.1437,-4.1532,-4.1555,-4.1637,-4.1685,-4.1695,-4.1741,-4.1781,-4.1805,-4.1849,-4.1874,-4.1923,-4.191,-4.1929,-4.1964,-4.1992,-4.2035,-4.1987,-4.2051,-4.2053,-4.2041,-4.212,-4.2127,-4.2196,-4.2096,-4.2098,-4.2099,0,-4.1522,-4.1569,-4.1657,-4.171,-4.1731,-4.1772,-4.1826,-4.1868,-4.1914,-4.1929,-4.1965,-4.1975,-4.2031,-4.2006,-4.2084,-4.2051,-4.2079,-4.2097,-4.21,-4.2108,-4.208,-4.2132,-4.2218,-4.2229,-4.2114,-4.2113,-4.2112,0,-4.1557,-4.1642,-4.1706,-4.1731,-4.1794,-4.1823,-4.1851,-4.1895,-4.1928,-4.1974,-4.1996,-4.2047,-4.2075,-4.2115,-4.2139,-4.2119,-4.2217,-4.2193,-4.2232,-4.2231,-4.2252,-4.2251,-4.2346,-4.2267,-4.2267,-4.2267,-4.2266,0,-4.1625,-4.1679,-4.1723,-4.1763,-4.1824,-4.185,-4.1909,-4.1937,-4.1977,-4.2023,-4.2033,-4.2075,-4.2104,-4.2151,-4.2169,-4.2233,-4.2245,-4.2259,-4.2264,-4.2259,-4.2258,-4.2279,-4.2275,-4.2269,-4.2269,-4.2268,-4.2268,0,-4.1674,-4.1706,-4.1777,-4.1833,-4.1848,-4.1891,-4.1938,-4.1978,-4.2003,-4.2061,-4.2075,-4.2115,-4.217,-4.2199,-4.2266,-4.228,-4.2352,-4.2353,-4.2337,-4.234,-4.2377,-4.2374,-4.249,-4.2508,-4.2416,-4.2416,-4.2417,0,-4.1716,-4.1759,-4.182,-4.1853,-4.1882,-4.1933,-4.1967,-4.1995,-4.203,-4.2088,-4.2121,-4.2178,-4.2225,-4.2313,-4.2347,-4.2401,-4.2404,-4.2441,-4.2412,-4.2407,-4.2407,-4.2405,-4.2411,-4.2446,-4.2447,-4.2448,-4.2448,0,-4.1789,-4.1804,-4.1853,-4.1911,-4.1952,-4.1997,-4.2042,-4.2067,-4.2102,-4.2142,-4.22,-4.2237,-4.2309,-4.2366,-4.2423,-4.2451,-4.2456,-4.2458,-4.247,-4.2466,-4.2457,-4.2465,-4.2354,-4.2455,-4.2454,-4.2454,-4.2453,-4.2453,-4.1837,-4.1877,-4.1928,-4.1984,-4.2021,-4.2064,-4.2105,-4.2137,-4.2187,-4.2249,-4.2262,-4.2325,-4.2372,-4.2449,-4.2479,-4.2529,-4.2521,-4.2537,-4.2542,-4.2546,-4.255,-4.2448,-4.2539,-4.2538,-4.2538,-4.2538,-4.2538,0,-4.1912,-4.1947,-4.1998,-4.2063,-4.2107,-4.2111,-4.2161,-4.2198,-4.2254,-4.2299,-4.2347,-4.2416,-4.2472,-4.2512,-4.2569,-4.2601,-4.2606,-4.2616,-4.2614,-4.2621,-4.2552,-4.2537,-4.2612,-4.2612,-4.2612,-4.2612,-4.2612,-4.2612,-4.1957,-4.2025,-4.2046,-4.2134,-4.2167,-4.2231,-4.226,-4.23,-4.2336,-4.2414,-4.2462,-4.2488,-4.2532,-4.2593,-4.2645,-4.2656,-4.2677,-4.2688,-4.2698,-4.2633,-4.2626,-4.2618,-4.2605,-4.2692,-4.2692,-4.2764,-4.2765,-4.2765]}]]